This is the latest recevied weather packets stored in our database for station/object R8AHC-13. If no packets are shown the sender has not sent any weather packets the latest 10 day(s).
| Time | Temp. | Humidity | Pressure | Rain* | Wind** | Luminosity | Snow |
|---|---|---|---|---|---|---|---|
| 1778193422 | 13.89° C | 54% | 1011 hPa | - | 0.89 m/s, 160° | - | - |
| 1778189822 | 13.89° C | 54% | 1011 hPa | - | 0.89 m/s, 330° | - | - |
| 1778186222 | 13.89° C | 54% | 1011 hPa | - | 0 m/s | - | - |
| 1778182622 | 13.89° C | 54% | 1011 hPa | - | 4.02 m/s, 340° | - | - |
| 1778179022 | 13.89° C | 54% | 1011 hPa | - | 0 m/s | - | - |
| 1778175441 | 20° C | 37% | 1012 hPa | - | 3.13 m/s, 200° | - | - |
| 1778171822 | 20° C | 40% | 1012 hPa | - | 3.13 m/s, 200° | - | - |
| 1778168222 | 20° C | 40% | 1011 hPa | - | 3.13 m/s, 190° | - | - |
| 1778164622 | 25° C | 27% | 1010 hPa | - | 3.13 m/s, 160° | - | - |
| 1778161022 | 26.11° C | 24% | 1010 hPa | - | 4.02 m/s, 170° | - | - |
| 1778157422 | 26.11° C | 24% | 1010 hPa | - | 4.02 m/s, 180° | - | - |
| 1778153823 | 26.11° C | 24% | 1010 hPa | - | 3.13 m/s, 200° | - | - |
| 1778150222 | 21.11° C | 35% | 1010 hPa | - | 4.02 m/s, 170° | - | - |
| 1778146622 | 21.11° C | 35% | 1011 hPa | - | 3.13 m/s, 200° | - | - |
| 1778143022 | 21.11° C | 35% | 1011 hPa | - | 4.02 m/s, 190° | - | - |
| 1778139422 | 21.11° C | 35% | 1010 hPa | - | 3.13 m/s, 200° | - | - |
| 1778135821 | 21.11° C | 35% | 1010 hPa | - | 3.13 m/s, 220° | - | - |
| 1778132222 | 21.11° C | 35% | 1011 hPa | - | 1.79 m/s, 290° | - | - |
| 1778128622 | 21.11° C | 35% | 1011 hPa | - | 4.02 m/s, 260° | - | - |
| 1778125022 | 13.89° C | 54% | 1010 hPa | - | 4.02 m/s, 240° | - | - |
| 1778121422 | 13.89° C | 54% | 1010 hPa | - | 1.79 m/s, 210° | - | - |
| 1778117823 | 13.89° C | 54% | 1010 hPa | - | 3.13 m/s, 220° | - | - |
| 1778114222 | 13.89° C | 54% | 1010 hPa | - | 3.13 m/s, 190° | - | - |
| 1778110622 | 13.89° C | 54% | 1010 hPa | - | 0.89 m/s, 190° | - | - |
| 1778107022 | 13.89° C | 54% | 1011 hPa | - | 3.13 m/s, 190° | - | - |
* Rain since midnight (hover to see other rain measurements)
** Current wind speed in m/s (hover to see current wind gust speed)